Weather History for Menominee, MI

Change the Weather History Date:

Monday, December 31, 2012

  Actual Average Record
Temperature  
Mean Temperature 14 °F -  
Max Temperature 24 °F 27 °F 51 °F (1965)
Min Temperature 3 °F 11 °F -14 °F (1967)
Degree Days  
Heating Degree Days 52    
Moisture  
Dew Point 10 °F    
Average Humidity 75    
Maximum Humidity 100    
Minimum Humidity 54    
Precipitation  
Precipitation 0.00 in - - ()
Sea Level Pressure  
Sea Level Pressure 29.99 in    
Wind  
Wind Speed 6 mph (WNW)    
Max Wind Speed 15 mph    
Max Gust Speed 20 mph    
Visibility 8 miles    
Events      
Averages and records for this station are not official NWS values.
T = Trace of Precipitation, MM = Missing Value Source: NWS Daily Summary

Daily Weather History Graph

Daily Weather History Graph

Search for Another Location

Airport:

Trip Planner

Search our weather history database for the weather conditions in past years. The results will help you decide how hot, cold, wet, or windy it might be!

Date:

Astronomy

Dec. 31, 2012 Rise Set
Actual Time 7:29 AM CST 4:18 PM CST
Civil Twilight 6:55 AM CST 4:52 PM CST
Nautical Twilight 6:18 AM CST 5:29 PM CST
Astronomical Twilight 5:42 AM CST 6:05 PM CST
Moon 7:59 PM CST (12/31) 9:01 AM CST (12/31)
Length of Visible Light 9h 56m
Length of Day
8h 49m
Waning Gibbous, 90% of the Moon is Illuminated
Dec 31
Waning Gibbous
Jan 4
Last Quarter
Jan 11
New
Jan 18
First Quarter
Jan 26
Full

Hourly Weather History & Observations

Time (CST) Temp. Windchill Dew Point Humidity Pressure Visibility Wind Dir Wind Speed Gust Speed Precip Events Conditions
12:15 AM 15.8 °F 8.6 °F 12.2 °F 86% 29.89 in 7.0 mi West 4.6 mph - N/A   Overcast
12:35 AM 15.8 °F 8.6 °F 14.0 °F 93% 29.88 in 6.0 mi West 4.6 mph - N/A   Overcast
12:55 AM 15.8 °F 8.6 °F 15.8 °F 100% 29.88 in 6.0 mi West 4.6 mph - N/A   Overcast
1:15 AM 17.6 °F 10.7 °F 15.8 °F 93% 29.88 in 6.0 mi WSW 4.6 mph - N/A   Overcast
1:35 AM 17.6 °F 8.2 °F 15.8 °F 93% 29.87 in 7.0 mi West 6.9 mph - N/A   Overcast
1:55 AM 17.6 °F 9.3 °F 14.0 °F 86% 29.87 in 7.0 mi West 5.8 mph - N/A   Overcast
2:15 AM 17.6 °F 9.3 °F 12.2 °F 79% 29.87 in 6.0 mi West 5.8 mph - N/A   Overcast
2:35 AM 17.6 °F 9.3 °F 12.2 °F 79% 29.86 in 6.0 mi West 5.8 mph - N/A   Overcast
2:55 AM 19.4 °F 10.4 °F 15.8 °F 86% 29.86 in 6.0 mi West 6.9 mph - N/A   Overcast
3:15 AM 19.4 °F 10.4 °F 15.8 °F 86% 29.86 in 7.0 mi West 6.9 mph - N/A   Overcast
3:35 AM 19.4 °F 9.5 °F 17.6 °F 93% 29.86 in 7.0 mi West 8.1 mph - N/A   Overcast
3:55 AM 19.4 °F 10.4 °F 17.6 °F 93% 29.86 in 7.0 mi West 6.9 mph - N/A   Overcast
4:15 AM 19.4 °F 11.5 °F 17.6 °F 93% 29.86 in 7.0 mi West 5.8 mph - N/A   Overcast
4:35 AM 19.4 °F 12.8 °F 17.6 °F 93% 29.87 in 7.0 mi West 4.6 mph - N/A   Mostly Cloudy
4:55 AM 19.4 °F 12.8 °F 17.6 °F 93% 29.87 in 7.0 mi West 4.6 mph - N/A   Partly Cloudy
5:15 AM 19.4 °F 12.8 °F 17.6 °F 93% 29.87 in 7.0 mi WSW 4.6 mph - N/A   Partly Cloudy
5:35 AM 19.4 °F 11.5 °F 15.8 °F 86% 29.88 in 6.0 mi West 5.8 mph - N/A   Mostly Cloudy
5:55 AM 19.4 °F 11.5 °F 12.2 °F 74% 29.89 in 6.0 mi West 5.8 mph - N/A   Scattered Clouds
6:15 AM 17.6 °F 10.7 °F 14.0 °F 86% 29.90 in 6.0 mi West 4.6 mph - N/A   Clear
6:35 AM 17.6 °F 12.3 °F 14.0 °F 86% 29.91 in 5.0 mi West 3.5 mph - N/A   Clear
6:55 AM 17.6 °F 10.7 °F 15.8 °F 93% 29.93 in 5.0 mi West 4.6 mph - N/A   Mostly Cloudy
7:15 AM 17.6 °F 12.3 °F 17.6 °F 100% 29.92 in 5.0 mi WNW 3.5 mph - N/A   Overcast
7:35 AM 19.4 °F 14.3 °F 17.6 °F 93% 29.92 in 5.0 mi WNW 3.5 mph - N/A   Overcast
7:55 AM 19.4 °F 14.3 °F 15.8 °F 86% 29.93 in 5.0 mi West 3.5 mph - N/A   Overcast
8:15 AM 19.4 °F - 15.8 °F 86% 29.94 in 5.0 mi Calm Calm - N/A   Overcast
8:35 AM 21.2 °F 14.9 °F 17.6 °F 86% 29.95 in 5.0 mi WNW 4.6 mph - N/A   Overcast
8:55 AM 21.2 °F 13.6 °F 17.6 °F 86% 29.96 in 7.0 mi WNW 5.8 mph - N/A   Overcast
9:15 AM 21.2 °F 12.6 °F 15.8 °F 80% 29.96 in 8.0 mi NW 6.9 mph - N/A   Overcast
9:35 AM 23.0 °F 15.8 °F 14.0 °F 68% 29.97 in 10.0 mi NW 5.8 mph 16.1 mph N/A   Overcast
9:55 AM 23.0 °F 17.0 °F 15.8 °F 74% 29.97 in 10.0 mi WNW 4.6 mph - N/A   Overcast
10:15 AM 23.0 °F 15.8 °F 15.8 °F 74% 29.97 in 10.0 mi WNW 5.8 mph - N/A   Overcast
10:35 AM 23.0 °F 17.0 °F 15.8 °F 74% 29.98 in 10.0 mi NW 4.6 mph - N/A   Overcast
10:55 AM 24.8 °F 17.9 °F 15.8 °F 69% 29.98 in 10.0 mi NW 5.8 mph - N/A   Overcast
11:15 AM 24.8 °F 16.1 °F 12.2 °F 59% 29.98 in 10.0 mi NW 8.1 mph 17.3 mph N/A   Overcast
11:35 AM 24.8 °F 15.3 °F 10.4 °F 54% 29.98 in 10.0 mi NW 9.2 mph 16.1 mph N/A   Overcast
11:55 AM 23.0 °F 14.7 °F 10.4 °F 59% 29.98 in 10.0 mi NNW 6.9 mph - N/A   Overcast
12:15 PM 23.0 °F 11.7 °F 10.4 °F 59% 29.97 in 10.0 mi NNW 11.5 mph 17.3 mph N/A   Overcast
12:35 PM 23.0 °F 13.1 °F 10.4 °F 59% 29.97 in 10.0 mi NNW 9.2 mph - N/A   Overcast
12:55 PM 21.2 °F 10.1 °F 10.4 °F 63% 29.97 in 10.0 mi North 10.4 mph - N/A   Overcast
1:15 PM 21.2 °F 8.9 °F 8.6 °F 58% 29.97 in 10.0 mi NNW 12.7 mph 16.1 mph N/A   Mostly Cloudy
1:35 PM 21.2 °F 10.1 °F 8.6 °F 58% 29.98 in 10.0 mi NW 10.4 mph - N/A   Partly Cloudy
1:55 PM 21.2 °F 11.7 °F 8.6 °F 58% 29.98 in 10.0 mi NW 8.1 mph 17.3 mph N/A   Clear
2:15 PM 21.2 °F 10.9 °F 8.6 °F 58% 29.98 in 10.0 mi NNW 9.2 mph - N/A   Scattered Clouds
2:35 PM 21.2 °F 10.1 °F 8.6 °F 58% 29.99 in 10.0 mi NNW 10.4 mph - N/A   Scattered Clouds
2:55 PM 21.2 °F 7.8 °F 8.6 °F 58% 30.00 in 10.0 mi NNW 15.0 mph 19.6 mph N/A   Partly Cloudy
3:15 PM 21.2 °F 12.6 °F 8.6 °F 58% 30.01 in 10.0 mi NNW 6.9 mph - N/A   Clear
3:35 PM 21.2 °F 10.1 °F 8.6 °F 58% 30.01 in 10.0 mi NNW 10.4 mph 16.1 mph N/A   Clear
3:55 PM 19.4 °F 7.9 °F 6.8 °F 58% 30.03 in 10.0 mi North 10.4 mph - N/A   Clear
4:35 PM 19.4 °F 9.5 °F 6.8 °F 58% 30.05 in 10.0 mi NNW 8.1 mph - N/A   Clear
4:55 PM 17.6 °F 9.3 °F 6.8 °F 63% 30.05 in 10.0 mi NNW 5.8 mph - N/A   Clear
5:15 PM 17.6 °F 8.2 °F 6.8 °F 63% 30.06 in 10.0 mi North 6.9 mph - N/A   Clear
5:35 PM 15.8 °F 5.1 °F 5.0 °F 62% 30.07 in 10.0 mi North 8.1 mph - N/A   Clear
5:55 PM 15.8 °F 3.4 °F 5.0 °F 62% 30.08 in 10.0 mi NNW 10.4 mph - N/A   Clear
6:15 PM 15.8 °F 5.1 °F 3.2 °F 58% 30.09 in 10.0 mi NNW 8.1 mph - N/A   Clear
6:35 PM 14.0 °F 2.0 °F 3.2 °F 62% 30.10 in 10.0 mi NNW 9.2 mph - N/A   Clear
6:55 PM 14.0 °F 2.9 °F 3.2 °F 62% 30.10 in 10.0 mi NNW 8.1 mph - N/A   Clear
7:15 PM 12.2 °F 2.9 °F 1.4 °F 62% 30.11 in 10.0 mi NNW 5.8 mph - N/A   Clear
7:35 PM 12.2 °F 2.9 °F 1.4 °F 62% 30.11 in 10.0 mi NNW 5.8 mph - N/A   Clear
7:55 PM 12.2 °F - 1.4 °F 62% 30.11 in 10.0 mi Calm Calm - N/A   Clear
8:15 PM 10.4 °F - 1.4 °F 67% 30.11 in 10.0 mi Calm Calm - N/A   Clear
8:35 PM 10.4 °F - 1.4 °F 67% 30.12 in 10.0 mi Calm Calm - N/A   Clear
8:55 PM 8.6 °F - -0.4 °F 67% 30.12 in 10.0 mi Calm Calm - N/A   Clear
9:15 PM 6.8 °F - 3.2 °F 85% 30.12 in 10.0 mi Calm Calm - N/A   Clear
9:35 PM 6.8 °F - 5.0 °F 92% 30.12 in 10.0 mi Calm Calm - N/A   Clear
9:55 PM 5.0 °F - 1.4 °F 85% 30.12 in 10.0 mi Calm Calm - N/A   Clear
10:15 PM 5.0 °F - 3.2 °F 92% 30.13 in 10.0 mi Calm Calm - N/A   Clear
10:35 PM 3.2 °F - -2.2 °F 78% 30.13 in 10.0 mi Calm Calm - N/A   Clear
11:15 PM 5.0 °F -4.1 °F 1.4 °F 85% 30.13 in 10.0 mi West 4.6 mph - N/A   Clear
11:35 PM 3.2 °F -4.2 °F 1.4 °F 92% 30.13 in 10.0 mi West 3.5 mph - N/A   Mostly Cloudy
11:55 PM 5.0 °F -2.1 °F -0.4 °F 78% 30.13 in 10.0 mi WNW 3.5 mph - N/A   Scattered Clouds